When you browse on this site, cookies collect data to enhance your experience and personalize the content and advertising you see.
Visit our Privacy Policy to learn more. By continuing to use the site, you agree to this use of cookies and data.
  • In Österreich
  • Länderverzeichnis
  • Für 7 Tage
  • Wassertemperatur
  • Satellitenkarten
  • Wetterkarte
  • News
  • Widgets
  • user-avatar
    Anmelden

    Stündliche Wetter Tottori

    Heute, 21 Juli, Sonntag

    Zeit Temperatur Niederschläge Wind Luftdruck Luftfeuchtigkeit
    00:00 +25°C° 0.1 mm 2 m/S 728 mmHg 97%
    01:00 +25°C° 0.1 mm 3 m/S 728 mmHg 96%
    02:00 +25°C° 0.1 mm 3 m/S 727 mmHg 96%
    03:00 +25°C° 0 mm 3 m/S 727 mmHg 96%
    04:00 +25°C° 0 mm 3 m/S 727 mmHg 96%
    05:00 +25°C° 0 mm 4 m/S 727 mmHg 96%
    06:00 +25°C° 0 mm 4 m/S 727 mmHg 95%
    07:00 +25°C° 0 mm 4 m/S 727 mmHg 94%
    08:00 +26°C° 0 mm 4 m/S 727 mmHg 93%
    09:00 +26°C° 0 mm 4 m/S 727 mmHg 92%
    10:00 +26°C° 0.2 mm 4 m/S 727 mmHg 92%
    11:00 +26°C° 0.2 mm 4 m/S 727 mmHg 92%
    12:00 +26°C° 0.2 mm 3 m/S 727 mmHg 93%
    13:00 +26°C° 0.7 mm 3 m/S 727 mmHg 94%
    14:00 +26°C° 0.7 mm 3 m/S 727 mmHg 95%
    15:00 +26°C° 0 mm 3 m/S 727 mmHg 95%
    16:00 +26°C° 0.7 mm 3 m/S 727 mmHg 95%
    17:00 +26°C° 0.7 mm 3 m/S 726 mmHg 95%
    18:00 +26°C° 0.7 mm 3 m/S 726 mmHg 95%
    19:00 +25°C° 0.6 mm 3 m/S 726 mmHg 96%
    20:00 +25°C° 0.6 mm 3 m/S 726 mmHg 97%
    21:00 +25°C° 0 mm 3 m/S 727 mmHg 98%
    22:00 +25°C° 1.5 mm 3 m/S 727 mmHg 98%
    23:00 +24°C° 1.5 mm 2 m/S 727 mmHg 98%

    Morgen, 22 Juli, Montag

    Zeit Temperatur Niederschläge Wind Luftdruck Luftfeuchtigkeit
    00:00 +24°C° 1.5 mm 2 m/S 727 mmHg 98%
    01:00 +24°C° 1.1 mm 2 m/S 726 mmHg 98%
    02:00 +24°C° 1.1 mm 2 m/S 726 mmHg 98%
    03:00 +24°C° 1.1 mm 2 m/S 726 mmHg 99%
    04:00 +24°C° 1.6 mm 2 m/S 726 mmHg 99%
    05:00 +24°C° 1.6 mm 2 m/S 726 mmHg 99%
    06:00 +24°C° 1.6 mm 2 m/S 726 mmHg 99%
    07:00 +24°C° 0.9 mm 2 m/S 726 mmHg 98%
    08:00 +25°C° 0.9 mm 2 m/S 726 mmHg 98%
    09:00 +25°C° 0.9 mm 2 m/S 726 mmHg 97%
    10:00 +26°C° 0.6 mm 2 m/S 726 mmHg 93%
    11:00 +27°C° 0.6 mm 2 m/S 726 mmHg 88%
    12:00 +29°C° 0.6 mm 2 m/S 726 mmHg 84%
    13:00 +29°C° 1.5 mm 2 m/S 726 mmHg 85%
    14:00 +29°C° 1.5 mm 2 m/S 725 mmHg 87%
    15:00 +29°C° 1.5 mm 1 m/S 725 mmHg 88%
    16:00 +28°C° 2.1 mm 1 m/S 725 mmHg 90%
    17:00 +27°C° 2.1 mm 1 m/S 725 mmHg 93%
    18:00 +26°C° 2.1 mm 1 m/S 724 mmHg 96%
    19:00 +25°C° 0.5 mm 1 m/S 725 mmHg 96%
    20:00 +25°C° 0.5 mm 1 m/S 725 mmHg 97%
    21:00 +24°C° 0.5 mm 1 m/S 725 mmHg 97%
    22:00 +24°C° 0 mm 1 m/S 725 mmHg 98%
    23:00 +24°C° 0 mm 1 m/S 725 mmHg 98%

    übermorgen, 23 Juli, Dienstag

    Zeit Temperatur Niederschläge Wind Luftdruck Luftfeuchtigkeit
    00:00 +23°C° 0 mm 1 m/S 725 mmHg 98%
    01:00 +23°C° 0 mm 1 m/S 725 mmHg 98%
    02:00 +23°C° 0 mm 1 m/S 725 mmHg 98%
    03:00 +23°C° 0 mm 1 m/S 724 mmHg 98%
    04:00 +23°C° 0 mm 1 m/S 725 mmHg 98%
    05:00 +24°C° 0 mm 1 m/S 725 mmHg 97%
    06:00 +24°C° 0 mm 1 m/S 725 mmHg 97%
    07:00 +25°C° 0.1 mm 1 m/S 725 mmHg 92%
    08:00 +27°C° 0.1 mm 1 m/S 725 mmHg 86%
    09:00 +28°C° 0.1 mm 1 m/S 725 mmHg 81%
    10:00 +29°C° 0.5 mm 1 m/S 725 mmHg 79%
    11:00 +30°C° 0.5 mm 1 m/S 725 mmHg 77%
    12:00 +31°C° 0.5 mm 1 m/S 724 mmHg 75%
    13:00 +31°C° 0.8 mm 1 m/S 724 mmHg 76%
    14:00 +30°C° 0.8 mm 1 m/S 724 mmHg 77%
    15:00 +30°C° 0.8 mm 1 m/S 724 mmHg 78%
    16:00 +30°C° 0.3 mm 1 m/S 723 mmHg 81%
    17:00 +29°C° 0.3 mm 1 m/S 723 mmHg 85%
    18:00 +28°C° 0.3 mm 1 m/S 723 mmHg 88%
    19:00 +25°C° 0.1 mm 0 m/S 723 mmHg 90%
    20:00 +24°C° 0.1 mm 0 m/S 724 mmHg 92%
    21:00 +22°C° 0.1 mm 0 m/S 724 mmHg 95%
    22:00 +22°C° 0 mm 0 m/S 724 mmHg 94%
    23:00 +22°C° 0 mm 0 m/S 724 mmHg 94%

    24 Juli, Mittwoch

    Zeit Temperatur Niederschläge Wind Luftdruck Luftfeuchtigkeit
    00:00 +21°C° 0 mm 0 m/S 724 mmHg 94%
    01:00 +21°C° 0 mm 0 m/S 724 mmHg 94%
    02:00 +21°C° 0 mm 0 m/S 724 mmHg 94%
    03:00 +21°C° 0 mm 0 m/S 724 mmHg 94%
    04:00 +21°C° 0 mm 0 m/S 724 mmHg 94%
    05:00 +21°C° 0 mm 0 m/S 724 mmHg 93%
    06:00 +21°C° 0 mm 0 m/S 724 mmHg 93%
    07:00 +24°C° 0 mm 0 m/S 725 mmHg 85%
    08:00 +26°C° 0 mm 0 m/S 725 mmHg 77%
    09:00 +28°C° 0 mm 0 m/S 725 mmHg 68%
    10:00 +31°C° 0 mm 1 m/S 725 mmHg 64%
    11:00 +33°C° 0 mm 1 m/S 725 mmHg 60%
    12:00 +34°C° 0 mm 1 m/S 725 mmHg 55%
    13:00 +33°C° 0.6 mm 1 m/S 725 mmHg 62%
    14:00 +31°C° 0.6 mm 1 m/S 725 mmHg 69%
    15:00 +30°C° 0.6 mm 1 m/S 725 mmHg 76%
    16:00 +30°C° 0.3 mm 1 m/S 725 mmHg 80%
    17:00 +29°C° 0.3 mm 1 m/S 725 mmHg 84%
    18:00 +28°C° 0.3 mm 1 m/S 725 mmHg 88%
    19:00 +27°C° 0.1 mm 1 m/S 725 mmHg 90%
    20:00 +24°C° 0.1 mm 0 m/S 725 mmHg 92%
    21:00 +23°C° 0.1 mm 0 m/S 726 mmHg 94%
    22:00 +22°C° 0 mm 0 m/S 726 mmHg 94%
    23:00 +24°C° 0 mm 1 m/S 726 mmHg 94%

    25 Juli, Donnerstag

    Zeit Temperatur Niederschläge Wind Luftdruck Luftfeuchtigkeit
    00:00 +24°C° 0 mm 1 m/S 726 mmHg 93%
    01:00 +24°C° 0 mm 1 m/S 726 mmHg 93%
    02:00 +24°C° 0 mm 1 m/S 726 mmHg 93%
    03:00 +22°C° 0 mm 0 m/S 726 mmHg 93%
    04:00 +22°C° 0 mm 0 m/S 726 mmHg 93%
    05:00 +22°C° 0 mm 0 m/S 726 mmHg 93%
    06:00 +24°C° 0 mm 1 m/S 726 mmHg 93%
    07:00 +24°C° 0.3 mm 0 m/S 727 mmHg 88%
    08:00 +26°C° 0.3 mm 0 m/S 727 mmHg 83%
    09:00 +28°C° 0.3 mm 0 m/S 727 mmHg 78%
    10:00 +31°C° 0.4 mm 1 m/S 727 mmHg 73%
    11:00 +32°C° 0.4 mm 1 m/S 727 mmHg 69%
    12:00 +32°C° 0.4 mm 1 m/S 727 mmHg 64%
    13:00 +33°C° 0.2 mm 1 m/S 727 mmHg 61%
    14:00 +34°C° 0.2 mm 2 m/S 726 mmHg 59%
    15:00 +34°C° 0.2 mm 2 m/S 726 mmHg 56%
    16:00 +32°C° 0.4 mm 1 m/S 726 mmHg 66%
    17:00 +30°C° 0.4 mm 1 m/S 726 mmHg 75%
    18:00 +27°C° 0.4 mm 0 m/S 726 mmHg 84%
    19:00 +26°C° 0.1 mm 0 m/S 726 mmHg 86%
    20:00 +26°C° 0.1 mm 1 m/S 726 mmHg 89%
    21:00 +25°C° 0.1 mm 1 m/S 726 mmHg 91%
    22:00 +25°C° 0 mm 1 m/S 726 mmHg 91%
    23:00 +24°C° 0 mm 1 m/S 726 mmHg 91%

    26 Juli, Freitag

    Zeit Temperatur Niederschläge Wind Luftdruck Luftfeuchtigkeit
    00:00 +24°C° 0 mm 1 m/S 726 mmHg 92%
    01:00 +24°C° 0 mm 1 m/S 726 mmHg 93%
    02:00 +23°C° 0 mm 2 m/S 726 mmHg 94%
    03:00 +23°C° 0 mm 2 m/S 726 mmHg 95%
    04:00 +23°C° 0 mm 2 m/S 726 mmHg 96%
    05:00 +23°C° 0 mm 2 m/S 726 mmHg 96%
    06:00 +24°C° 0 mm 1 m/S 726 mmHg 96%
    07:00 +25°C° 0 mm 1 m/S 726 mmHg 91%
    08:00 +27°C° 0 mm 1 m/S 726 mmHg 85%
    09:00 +28°C° 0 mm 1 m/S 727 mmHg 80%
    10:00 +29°C° 0 mm 1 m/S 727 mmHg 76%
    11:00 +30°C° 0 mm 2 m/S 727 mmHg 72%
    12:00 +31°C° 0 mm 2 m/S 726 mmHg 68%
    13:00 +31°C° 0.4 mm 2 m/S 726 mmHg 67%
    14:00 +32°C° 0.4 mm 2 m/S 726 mmHg 67%
    15:00 +32°C° 0.4 mm 2 m/S 726 mmHg 66%
    16:00 +31°C° 0.5 mm 1 m/S 726 mmHg 73%
    17:00 +30°C° 0.5 mm 1 m/S 726 mmHg 79%
    18:00 +27°C° 0.5 mm 0 m/S 725 mmHg 86%
    19:00 +28°C° 0 mm 1 m/S 726 mmHg 89%
    20:00 +26°C° 0 mm 1 m/S 726 mmHg 91%
    21:00 +25°C° 0 mm 1 m/S 726 mmHg 94%
    22:00 +25°C° 0 mm 1 m/S 726 mmHg 94%
    23:00 +24°C° 0 mm 1 m/S 726 mmHg 94%
    Mehr zeigen